HI1077 MDJB-MDJB

Flight info

Callsign HI1077
Flight time 0h 9m
Altitude 4000
Route VFR
Aircraft A119/L-SFG/C

Departure

Time 2026-05-04 02:51
Airport La Isabela International Airport (MDJB)

Arrival

Time 2026-05-04 03:00
Airport La Isabela International Airport (MDJB)
Time Latitude Longitude Altitude Speed Heading
2026-05-04 02:25 18.44950 -68.91507 246 ft 0 kts 187°
2026-05-04 02:25 18.44952 -68.91511 254 ft 6 kts 21°
2026-05-04 02:26 18.45071 -68.91571 323 ft 52 kts 270°
2026-05-04 02:26 18.45024 -68.92218 481 ft 115 kts 253°
2026-05-04 02:26 18.44602 -68.92995 472 ft 125 kts 238°
2026-05-04 02:26 18.44135 -68.93754 534 ft 125 kts 236°
2026-05-04 02:27 18.43631 -68.94502 604 ft 124 kts 234°
2026-05-04 02:27 18.43133 -68.95260 602 ft 128 kts 233°
2026-05-04 02:27 18.42614 -68.96028 488 ft 125 kts 238°
2026-05-04 02:27 18.42108 -68.96771 487 ft 127 kts 232°
2026-05-04 02:28 18.41535 -68.97492 361 ft 128 kts 229°
2026-05-04 02:28 18.40965 -68.98224 235 ft 125 kts 220°
2026-05-04 02:28 18.40381 -68.98566 173 ft 60 kts 253°
2026-05-04 02:28 18.40339 -68.98833 39 ft 6 kts 266°
2026-05-04 02:29 18.40342 -68.98835 22 ft 2 kts 56°
2026-05-04 02:29 18.40346 -68.98832 16 ft 0 kts 96°
2026-05-04 02:33 18.40348 -68.98829 30 ft 10 kts 103°
2026-05-04 02:33 18.40079 -68.98760 125 ft 57 kts 261°
2026-05-04 02:34 18.40042 -68.99287 310 ft 86 kts 273°
2026-05-04 02:34 18.40043 -68.99985 535 ft 106 kts 271°
2026-05-04 02:34 18.40051 -69.00792 729 ft 112 kts 272°
2026-05-04 02:34 18.40053 -69.01617 919 ft 113 kts 276°
2026-05-04 02:35 18.40107 -69.02429 1126 ft 110 kts 275°
2026-05-04 02:35 18.40151 -69.03243 1324 ft 112 kts 275°
2026-05-04 02:35 18.40175 -69.04055 1580 ft 108 kts 273°
2026-05-04 02:35 18.40261 -69.04890 1927 ft 126 kts 278°
2026-05-04 02:36 18.40429 -69.05838 1873 ft 138 kts 280°
2026-05-04 02:36 18.40606 -69.06834 1740 ft 137 kts 281°
2026-05-04 02:36 18.40773 -69.07818 1611 ft 135 kts 281°
2026-05-04 02:36 18.40935 -69.08782 1527 ft 132 kts 282°
2026-05-04 02:37 18.41094 -69.09725 1512 ft 130 kts 282°
2026-05-04 02:37 18.41256 -69.10665 1519 ft 130 kts 282°
2026-05-04 02:37 18.41421 -69.11606 1526 ft 131 kts 283°
2026-05-04 02:37 18.41590 -69.12549 1529 ft 131 kts 283°
2026-05-04 02:38 18.41758 -69.13485 1504 ft 128 kts 283°
2026-05-04 02:38 18.41923 -69.14393 1499 ft 125 kts 283°
2026-05-04 02:38 18.42086 -69.15290 1518 ft 125 kts 283°
2026-05-04 02:38 18.42251 -69.16192 1530 ft 125 kts 283°
2026-05-04 02:39 18.42418 -69.17096 1531 ft 126 kts 283°
2026-05-04 02:39 18.42586 -69.18004 1530 ft 126 kts 283°
2026-05-04 02:39 18.42754 -69.18901 1530 ft 126 kts 284°
2026-05-04 02:39 18.42924 -69.19808 1529 ft 126 kts 284°
2026-05-04 02:40 18.43000 -69.20727 1528 ft 126 kts 272°
2026-05-04 02:40 18.43018 -69.21656 1532 ft 127 kts 274°
2026-05-04 02:40 18.43039 -69.22585 1530 ft 127 kts 272°
2026-05-04 02:40 18.43024 -69.23518 1529 ft 127 kts 270°
2026-05-04 02:41 18.42994 -69.24451 1530 ft 127 kts 270°
2026-05-04 02:41 18.42963 -69.25386 1530 ft 127 kts 270°
2026-05-04 02:41 18.42932 -69.26320 1530 ft 127 kts 270°
2026-05-04 02:41 18.42900 -69.27252 1530 ft 128 kts 270°
2026-05-04 02:42 18.42870 -69.28175 1530 ft 128 kts 270°
2026-05-04 02:42 18.42839 -69.29110 1530 ft 128 kts 270°
2026-05-04 02:42 18.42809 -69.30043 1530 ft 128 kts 270°
2026-05-04 02:42 18.42779 -69.30975 1530 ft 128 kts 270°
2026-05-04 02:43 18.42750 -69.31913 1530 ft 128 kts 270°
2026-05-04 02:43 18.42720 -69.32838 1530 ft 128 kts 270°
2026-05-04 02:43 18.42691 -69.33773 1530 ft 128 kts 270°
2026-05-04 02:43 18.42662 -69.34711 1530 ft 128 kts 270°
2026-05-04 02:44 18.42642 -69.35330 1530 ft 128 kts 270°
2026-05-04 02:44 18.42614 -69.36261 1530 ft 128 kts 270°
2026-05-04 02:44 18.42585 -69.37202 1530 ft 128 kts 270°
2026-05-04 02:44 18.42556 -69.38141 1530 ft 128 kts 270°
2026-05-04 02:45 18.42527 -69.39076 1530 ft 128 kts 270°
2026-05-04 02:45 18.42499 -69.39999 1530 ft 128 kts 270°
2026-05-04 02:45 18.42471 -69.40935 1530 ft 128 kts 270°
2026-05-04 02:45 18.42443 -69.41870 1530 ft 128 kts 270°
2026-05-04 02:46 18.42415 -69.42805 1530 ft 128 kts 270°
2026-05-04 02:46 18.42387 -69.43741 1530 ft 128 kts 270°
2026-05-04 02:46 18.42359 -69.44676 1530 ft 128 kts 270°
2026-05-04 02:46 18.42331 -69.45612 1530 ft 128 kts 270°
2026-05-04 02:47 18.42303 -69.46545 1530 ft 128 kts 270°
2026-05-04 02:47 18.42276 -69.47480 1530 ft 128 kts 270°
2026-05-04 02:47 18.42307 -69.48414 1531 ft 127 kts 278°
2026-05-04 02:47 18.42413 -69.49333 1531 ft 127 kts 280°
2026-05-04 02:48 18.42531 -69.50256 1530 ft 127 kts 280°
2026-05-04 02:48 18.42651 -69.51178 1530 ft 127 kts 280°
2026-05-04 02:48 18.42771 -69.52100 1530 ft 127 kts 280°
2026-05-04 02:48 18.42889 -69.53012 1530 ft 127 kts 280°
2026-05-04 02:49 18.43011 -69.53946 1530 ft 127 kts 280°
2026-05-04 02:49 18.43131 -69.54865 1530 ft 127 kts 280°
2026-05-04 02:49 18.43252 -69.55790 1530 ft 127 kts 280°
2026-05-04 02:49 18.43370 -69.56695 1530 ft 127 kts 280°
2026-05-04 02:50 18.43491 -69.57621 1530 ft 127 kts 280°
2026-05-04 02:50 18.43611 -69.58546 1530 ft 127 kts 280°
2026-05-04 02:50 18.43732 -69.59470 1530 ft 127 kts 280°
2026-05-04 02:50 18.43853 -69.60394 1530 ft 127 kts 280°
2026-05-04 02:51 18.43974 -69.61317 1530 ft 127 kts 280°
2026-05-04 02:51 18.44095 -69.62240 1530 ft 127 kts 280°
2026-05-04 02:51 18.44215 -69.63161 1530 ft 127 kts 280°
2026-05-04 02:51 18.44334 -69.64073 1530 ft 127 kts 280°
2026-05-04 02:52 18.44457 -69.65008 1530 ft 127 kts 280°
2026-05-04 02:52 18.44578 -69.65932 1530 ft 127 kts 280°
2026-05-04 02:52 18.44699 -69.66853 1530 ft 127 kts 280°
2026-05-04 02:52 18.44818 -69.67763 1530 ft 127 kts 280°
2026-05-04 02:53 18.44939 -69.68686 1530 ft 127 kts 280°
2026-05-04 02:53 18.45061 -69.69612 1530 ft 127 kts 280°
2026-05-04 02:53 18.45182 -69.70533 1530 ft 127 kts 280°
2026-05-04 02:53 18.45304 -69.71456 1530 ft 127 kts 280°
2026-05-04 02:54 18.45425 -69.72378 1530 ft 127 kts 280°
2026-05-04 02:54 18.45547 -69.73304 1530 ft 127 kts 280°
2026-05-04 02:54 18.45667 -69.74213 1530 ft 127 kts 280°
2026-05-04 02:54 18.45767 -69.75139 1530 ft 127 kts 277°
2026-05-04 02:55 18.45850 -69.77004 1530 ft 128 kts 274°
2026-05-04 02:55 18.45885 -69.77955 1530 ft 128 kts 274°
2026-05-04 02:55 18.45919 -69.78892 1530 ft 128 kts 274°
2026-05-04 02:56 18.45952 -69.79814 1530 ft 128 kts 274°
2026-05-04 02:56 18.45986 -69.80748 1530 ft 128 kts 274°
2026-05-04 02:56 18.46020 -69.81685 1529 ft 128 kts 274°
2026-05-04 02:56 18.46054 -69.82634 1395 ft 132 kts 274°
2026-05-04 02:57 18.46090 -69.83598 1162 ft 130 kts 274°
2026-05-04 02:57 18.46135 -69.84533 961 ft 126 kts 274°
2026-05-04 02:57 18.46189 -69.85451 898 ft 123 kts 274°
2026-05-04 02:57 18.46243 -69.86343 901 ft 122 kts 274°
2026-05-04 02:58 18.46151 -69.87225 918 ft 121 kts 258°
2026-05-04 02:58 18.45931 -69.88091 932 ft 123 kts 255°
2026-05-04 02:58 18.45693 -69.88952 933 ft 123 kts 254°
2026-05-04 02:58 18.45453 -69.89816 932 ft 123 kts 254°
2026-05-04 02:59 18.45173 -69.90668 829 ft 125 kts 246°
2026-05-04 02:59 18.44736 -69.91466 715 ft 128 kts 241°
2026-05-04 02:59 18.44299 -69.92250 615 ft 124 kts 237°
2026-05-04 02:59 18.43872 -69.93057 482 ft 126 kts 240°
2026-05-04 03:00 18.43442 -69.93844 347 ft 124 kts 241°
2026-05-04 03:00 18.43129 -69.94460 281 ft 124 kts 245°
2026-05-04 03:00 18.42956 -69.95228 351 ft 89 kts 321°
2026-05-04 03:00 18.43230 -69.95116 227 ft 36 kts 82°
2026-05-04 03:01 18.43298 -69.94887 164 ft 31 kts 78°
2026-05-04 03:01 18.43347 -69.94733 88 ft 9 kts 74°
2026-05-04 03:01 18.43371 -69.94719 68 ft 1 kts 83°
2026-05-04 03:01 18.43373 -69.94720 62 ft 0 kts 79°
2026-05-04 03:04 18.43355 -69.94666 80 ft 34 kts 130°
2026-05-04 03:04 18.43496 -69.94304 271 ft 80 kts 356°
2026-05-04 03:04 18.44159 -69.94435 455 ft 111 kts 348°
2026-05-04 03:04 18.44956 -69.94625 769 ft 120 kts 348°
2026-05-04 03:05 18.45771 -69.94810 894 ft 120 kts 343°
2026-05-04 03:05 18.46580 -69.95075 937 ft 122 kts 342°
2026-05-04 03:05 18.47398 -69.95373 1062 ft 128 kts 341°
2026-05-04 03:05 18.48246 -69.95673 1058 ft 129 kts 341°
2026-05-04 03:06 18.49098 -69.95972 1048 ft 129 kts 342°
2026-05-04 03:06 18.49937 -69.96262 1003 ft 125 kts 342°
2026-05-04 03:06 18.50790 -69.96488 1041 ft 129 kts 349°
2026-05-04 03:06 18.51439 -69.96595 1015 ft 125 kts 352°
2026-05-04 03:07 18.52305 -69.96719 1014 ft 125 kts 353°
2026-05-04 03:07 18.53155 -69.96835 1012 ft 125 kts 353°
2026-05-04 03:07 18.54021 -69.96951 1011 ft 125 kts 353°
2026-05-04 03:07 18.54890 -69.97067 1002 ft 127 kts 353°
2026-05-04 03:08 18.55722 -69.97383 537 ft 128 kts 334°
2026-05-04 03:08 18.56495 -69.97839 407 ft 132 kts 329°
2026-05-04 03:08 18.57305 -69.98262 221 ft 115 kts 341°
2026-05-04 03:08 18.57817 -69.98354 194 ft 28 kts 64°
2026-05-04 03:09 18.57856 -69.98290 109 ft 11 kts 101°
2026-05-04 03:09 18.57853 -69.98256 90 ft 1 kts 103°
2026-05-04 03:09 18.57851 -69.98251 84 ft 0 kts 98°